Location: ????????
(48.4751°N, 37.6926°E)
Time: 21:11:07
(UTC+00:00)

Cosmos 923 Rocket - Pass Details

Date: 20 January 2021
Orbit: 758 x 785 km, 74.0° (Epoch: 01 March)

Event Time Altitude Azimuth Distance (km) Brightness Sun altitude
Rises 16:28:44 0° 335° (NNW) 3,288 7.5 -22.7°
Reaches altitude 10° 16:31:08 10° 333° (NNW) 2,354 6.8 -23.1°
Maximum altitude 16:36:28 71° 251° (WSW) 828 4.2 -24.0°
Drops below altitude 10° 16:41:44 10° 168° (SSE) 2,327 6.4 -24.9°
Enters shadow 16:42:33 - 167° (SSE) 2,641 6.7 -25.0°
